M I D A S
Marine Information and Data Acquisition System
Tripno 1186 of the Zeeleeuw from 2006-11-21 07:35:17 to 2006-11-21 15:36:30
Back to CruiseResearch ActivitiesStationsMapUnderway DataData graphs

EquipmentUnitsComments
TimeDGPSUTC
LatitudeDGPSDM.mWGS84
LongitudeDGPSDM.mWGS84
SpeedMeteo Stationm/sRelative wind speed
DirectionMeteo StationdegRelative wind direction
TemperatureMeteo Stationdeg CelciusAir temperature
PressureMeteo StationPaAtmospheric pressure
HumidityMeteo Station%Relative humidity
Missing or incorrect values are displayed as -999
Metereological data collected by the RV Zeeleeuw from 2006-11-21 07:21:41 to 2006-11-21 15:39:16
Time Latitude Longitude Speed Direction Temperature Pressure Humidity
2006-11-21 07:22 51°13.598 2°56.095 1.7 17 6.9 99710 91
2006-11-21 07:23 51°13.599 2°56.095 2.7 13 6.9 99710 91
2006-11-21 07:24 51°13.598 2°56.094 3.1 18 6.9 99710 91
2006-11-21 07:25 51°13.598 2°56.094 3.5 22 7 99710 91
2006-11-21 07:26 51°13.599 2°56.095 4.1 19 7 99710 90
2006-11-21 07:27 51°13.599 2°56.096 2.8 14 7 99710 90
2006-11-21 07:28 51°13.599 2°56.097 6 4 7 99710 90
2006-11-21 07:29 51°13.599 2°56.097 3.9 11 7 99710 90
2006-11-21 07:30 51°13.598 2°56.095 5.9 15 7 99710 90
2006-11-21 07:31 51°13.599 2°56.096 2.9 5 7.1 99710 90
2006-11-21 07:32 51°13.599 2°56.096 2.4 23 7.1 99710 90
2006-11-21 07:33 51°13.599 2°56.096 3.2 24 7.1 99710 89
2006-11-21 07:34 51°13.597 2°56.095 2.4 13 7.1 99710 89
2006-11-21 07:35 51°13.611 2°56.05 2.8 32 7.1 99710 89
2006-11-21 07:36 51°13.635 2°55.958 2.6 73 7.1 99710 89
2006-11-21 07:37 51°13.668 2°55.857 5 38 7.1 99710 89
2006-11-21 07:38 51°13.692 2°55.768 3.6 37 7.1 99720 89
2006-11-21 07:39 51°13.699 2°55.728 3.7 33 7.1 99710 89
2006-11-21 07:40 51°13.714 2°55.734 1 282 7.1 99710 89
2006-11-21 07:41 51°13.75 2°55.711 2.2 284 7.1 99710 89
2006-11-21 07:42 51°13.815 2°55.648 3.5 279 7.1 99710 89
2006-11-21 07:43 51°13.907 2°55.575 1.5 284 7.2 99700 89
2006-11-21 07:44 51°14.015 2°55.503 4.1 282 7.2 99710 89
2006-11-21 07:45 51°14.138 2°55.416 3 287 7.2 99710 89
2006-11-21 07:46 51°14.261 2°55.272 5.1 283 7.2 99710 89
2006-11-21 07:47 51°14.366 2°55.069 6.5 281 7.2 99700 89
2006-11-21 07:48 51°14.502 2°54.904 8.1 286 7.3 99690 89
2006-11-21 07:49 51°14.67 2°54.746 8 284 7.4 99690 89
2006-11-21 07:50 51°14.854 2°54.6 6.8 282 7.6 99680 90
2006-11-21 07:51 51°15.04 2°54.443 7 279 7.8 99690 90
2006-11-21 07:52 51°15.207 2°54.237 8.1 279 7.9 99680 90
2006-11-21 07:53 51°15.379 2°54.035 8.5 279 8.1 99660 90
2006-11-21 07:54 51°15.557 2°53.841 9.2 282 8.3 99680 90
2006-11-21 07:55 51°15.738 2°53.655 14.2 280 8.4 99670 90
2006-11-21 07:56 51°15.912 2°53.479 16.6 280 8.6 99630 90
2006-11-21 07:57 51°16.092 2°53.313 15.3 282 9 99630 86
2006-11-21 07:58 51°16.277 2°53.155 15.6 281 9.5 99620 83
2006-11-21 07:59 51°16.456 2°53.01 16.6 281 9.8 99650 79
2006-11-21 08:00 51°16.643 2°52.862 13.8 282 10 99610 76
2006-11-21 08:01 51°16.824 2°52.734 13 286 10.2 99620 75
2006-11-21 08:02 51°17.016 2°52.613 15.1 282 10.3 99610 75
2006-11-21 08:03 51°17.207 2°52.549 12.7 279 10.4 99630 74
2006-11-21 08:04 51°17.41 2°52.508 14 281 10.4 99630 72
2006-11-21 08:05 51°17.604 2°52.476 12.6 285 10.4 99620 71
2006-11-21 08:06 51°17.804 2°52.461 15.9 281 10.4 99630 71
2006-11-21 08:07 51°17.998 2°52.505 11.2 280 10.5 99630 70
2006-11-21 08:08 51°18.175 2°52.635 4.5 280 10.5 99640 70
2006-11-21 08:09 51°18.296 2°52.873 3.4 285 10.4 99670 70
2006-11-21 08:10 51°18.426 2°53.112 5.4 284 10.5 99660 71
2006-11-21 08:11 51°18.566 2°53.338 5 279 10.5 99660 70
2006-11-21 08:12 51°18.717 2°53.565 4.4 282 10.5 99650 71
2006-11-21 08:13 51°18.858 2°53.788 5.5 280 10.5 99660 71
2006-11-21 08:14 51°19.011 2°53.999 5.9 286 10.6 99660 72
2006-11-21 08:15 51°19.155 2°54.218 3.5 280 10.6 99670 72
2006-11-21 08:16 51°19.302 2°54.424 7.1 284 10.6 99660 73
2006-11-21 08:17 51°19.449 2°54.638 2.6 280 10.6 99650 73
2006-11-21 08:18 51°19.594 2°54.852 7.3 279 10.6 99650 73
2006-11-21 08:19 51°19.745 2°55.062 7.1 280 10.5 99650 71
2006-11-21 08:20 51°19.899 2°55.271 8.4 280 10.5 99650 71
2006-11-21 08:21 51°20.039 2°55.503 8.7 285 10.6 99640 72
2006-11-21 08:22 51°20.164 2°55.749 4.6 279 10.6 99640 72
2006-11-21 08:23 51°20.291 2°55.998 6.9 285 10.5 99630 71
2006-11-21 08:24 51°20.376 2°56.293 4.5 75 10.5 99650 69
2006-11-21 08:25 51°20.416 2°56.615 3.6 79 10.5 99650 68
2006-11-21 08:26 51°20.472 2°56.934 5.2 80 10.5 99650 69
2006-11-21 08:27 51°20.479 2°57.265 3 76 10.6 99660 71
2006-11-21 08:28 51°20.483 2°57.608 4.9 74 10.7 99660 72
2006-11-21 08:29 51°20.484 2°57.951 2.2 81 10.7 99650 71
2006-11-21 08:30 51°20.525 2°58.283 4.1 81 10.7 99650 71
2006-11-21 08:31 51°20.611 2°58.577 5.3 280 10.6 99650 71
2006-11-21 08:32 51°20.772 2°58.782 9.7 279 10.6 99630 70
2006-11-21 08:33 51°20.956 2°58.943 10.7 281 10.5 99630 71
2006-11-21 08:34 51°21.169 2°58.953 15.7 282 10.5 99600 72
2006-11-21 08:35 51°21.386 2°58.881 17.2 284 10.5 99590 72
2006-11-21 08:36 51°21.576 2°58.777 13.1 278 10.4 99590 72
2006-11-21 08:37 51°21.718 2°58.676 13.9 278 10.5 99600 73
2006-11-21 08:38 51°21.855 2°58.601 12.7 282 10.4 99620 71
2006-11-21 08:39 51°21.994 2°58.529 15 286 10.4 99620 71
2006-11-21 08:40 51°21.954 2°58.348 14.3 1 10.5 99620 72
2006-11-21 08:41 51°21.845 2°58.293 12.3 354 10.4 99610 71
2006-11-21 08:42 51°21.788 2°58.23 11.4 352 10.4 99610 71
2006-11-21 08:43 51°21.771 2°58.225 8.9 5 10.5 99620 72
2006-11-21 08:44 51°21.764 2°58.229 11.4 19 10.4 99620 71
2006-11-21 08:45 51°21.755 2°58.231 10.9 25 10.4 99620 70
2006-11-21 08:46 51°21.746 2°58.233 9.1 29 10.4 99620 70
2006-11-21 08:47 51°21.735 2°58.237 10.3 28 10.4 99630 71
2006-11-21 08:48 51°21.724 2°58.24 9.6 24 10.4 99620 70
2006-11-21 08:49 51°21.712 2°58.244 9.5 26 10.4 99620 70
2006-11-21 08:50 51°21.701 2°58.248 9.7 21 10.4 99620 70
2006-11-21 08:51 51°21.692 2°58.253 10.6 19 10.3 99620 69
2006-11-21 08:52 51°21.681 2°58.26 11.5 23 10.3 99620 68
2006-11-21 08:53 51°21.667 2°58.266 10.8 13 10.5 99620 72
2006-11-21 08:54 51°21.613 2°58.226 11.7 278 10.4 99630 71
2006-11-21 08:55 51°21.601 2°58.111 12.6 285 10.4 99640 72
2006-11-21 08:56 51°21.686 2°58.128 14.7 282 10.4 99660 72
2006-11-21 08:57 51°21.775 2°58.137 11.6 287 10.3 99630 72
2006-11-21 08:58 51°21.791 2°58.13 10.5 284 10.4 99630 72
2006-11-21 08:59 51°21.79 2°58.127 10.9 281 10.4 99630 72
2006-11-21 09:00 51°21.783 2°58.13 13.2 279 10.3 99630 72
2006-11-21 09:01 51°21.774 2°58.136 14.6 282 10.2 99630 69
2006-11-21 09:02 51°21.763 2°58.144 9.9 283 10.3 99630 70
2006-11-21 09:03 51°21.749 2°58.15 7.9 280 10.3 99640 70
2006-11-21 09:04 51°21.735 2°58.158 7.2 281 10.3 99630 70
2006-11-21 09:05 51°21.72 2°58.164 11.2 287 10.2 99630 69
2006-11-21 09:06 51°21.707 2°58.17 9.7 286 10.2 99630 68
2006-11-21 09:07 51°21.694 2°58.176 9.7 286 10.2 99640 69
2006-11-21 09:08 51°21.682 2°58.183 7.3 285 10.2 99630 69
2006-11-21 09:09 51°21.673 2°58.191 10.9 282 10.2 99620 70
2006-11-21 09:10 51°21.664 2°58.202 7.7 286 10.2 99640 70
2006-11-21 09:11 51°21.654 2°58.21 11.3 285 10.2 99630 71
2006-11-21 09:12 51°21.676 2°58.209 12.4 279 10.3 99620 71
2006-11-21 09:13 51°21.667 2°58.215 11.5 280 10.2 99630 71
2006-11-21 09:14 51°21.655 2°58.225 7.7 279 10.2 99630 72
2006-11-21 09:15 51°21.646 2°58.233 10.9 284 10.2 99620 72
2006-11-21 09:16 51°21.64 2°58.242 6 285 10.1 99630 72
2006-11-21 09:17 51°21.681 2°58.226 11.4 282 10.2 99630 72
2006-11-21 09:18 51°21.743 2°58.131 11.6 285 10.2 99600 73
2006-11-21 09:19 51°21.75 2°58.115 12.5 286 10.2 99610 74
2006-11-21 09:20 51°21.745 2°58.119 12.8 279 10.2 99620 74
2006-11-21 09:21 51°21.739 2°58.128 10 281 10.1 99620 72
2006-11-21 09:22 51°21.732 2°58.139 12.9 286 10.1 99620 72
2006-11-21 09:23 51°21.724 2°58.145 11.1 278 10.1 99620 72
2006-11-21 09:24 51°21.713 2°58.154 13.6 286 10.1 99620 73
2006-11-21 09:25 51°21.7 2°58.162 12.8 281 10 99620 73
2006-11-21 09:26 51°21.687 2°58.172 7.7 281 10 99620 72
2006-11-21 09:27 51°21.674 2°58.183 8.1 284 10 99630 73
2006-11-21 09:28 51°21.661 2°58.191 10 279 10 99630 72
2006-11-21 09:29 51°21.648 2°58.201 6.9 279 10 99630 71
2006-11-21 09:30 51°21.636 2°58.213 11.3 281 10.1 99630 73
2006-11-21 09:31 51°21.624 2°58.224 8.5 283 10.1 99620 73
2006-11-21 09:32 51°21.612 2°58.239 12.4 280 10 99620 73
2006-11-21 09:33 51°21.628 2°58.25 13 281 10 99620 73
2006-11-21 09:34 51°21.669 2°58.23 10.4 282 10 99610 73
2006-11-21 09:35 51°21.706 2°58.172 10.8 287 10 99610 73
2006-11-21 09:36 51°21.709 2°58.171 11.4 278 10 99610 73
2006-11-21 09:37 51°21.704 2°58.18 8.4 284 10 99610 73
2006-11-21 09:38 51°21.698 2°58.194 9 283 10 99630 71
2006-11-21 09:39 51°21.69 2°58.205 8.3 281 10.1 99630 71
2006-11-21 09:40 51°21.681 2°58.217 12.6 283 10.1 99630 72
2006-11-21 09:41 51°21.671 2°58.23 6.5 279 10 99630 71
2006-11-21 09:42 51°21.663 2°58.24 6.3 286 10 99620 71
2006-11-21 09:43 51°21.655 2°58.253 10.8 284 10.1 99630 73
2006-11-21 09:44 51°21.646 2°58.265 10.2 278 10.1 99630 72
2006-11-21 09:45 51°21.637 2°58.278 7.1 278 10.1 99630 71
2006-11-21 09:46 51°21.627 2°58.292 8.8 286 10.1 99620 71
2006-11-21 09:47 51°21.616 2°58.306 9.6 283 10.2 99630 72
2006-11-21 09:48 51°21.636 2°58.312 12.2 282 10.3 99610 72
2006-11-21 09:49 51°21.686 2°58.218 11.3 281 10.3 99600 73
2006-11-21 09:50 51°21.694 2°58.154 9.8 279 10.3 99610 69
2006-11-21 09:51 51°21.688 2°58.163 10.8 282 10.3 99610 68
2006-11-21 09:52 51°21.678 2°58.179 11 282 10.3 99600 68
2006-11-21 09:53 51°21.664 2°58.196 7.4 280 10.3 99620 69
2006-11-21 09:54 51°21.652 2°58.211 8 281 10.3 99620 70
2006-11-21 09:55 51°21.646 2°58.226 10.1 281 10.4 99620 71
2006-11-21 09:56 51°21.697 2°58.2 13.2 281 10.3 99610 71
2006-11-21 09:57 51°21.681 2°58.017 14.1 279 10.2 99600 69
2006-11-21 09:58 51°21.609 2°57.761 16.4 286 10.2 99600 67
2006-11-21 09:59 51°21.544 2°57.502 14.4 282 10.2 99610 68
2006-11-21 10:00 51°21.522 2°57.37 10 281 10.3 99620 70
2006-11-21 10:01 51°21.513 2°57.376 10.7 282 10.2 99610 71
2006-11-21 10:02 51°21.5 2°57.392 10.4 279 10.3 99600 72
2006-11-21 10:03 51°21.486 2°57.408 8.4 280 10.3 99610 72
2006-11-21 10:04 51°21.473 2°57.423 6.5 280 10.3 99610 71
2006-11-21 10:05 51°21.458 2°57.438 8.9 281 10.3 99610 70
2006-11-21 10:06 51°21.446 2°57.455 9.9 280 10.2 99610 68
2006-11-21 10:07 51°21.437 2°57.476 10.7 283 10.2 99610 69
2006-11-21 10:08 51°21.429 2°57.494 9.1 286 10.2 99610 69
2006-11-21 10:09 51°21.419 2°57.515 9.4 281 10.1 99610 69
2006-11-21 10:10 51°21.41 2°57.538 7 281 10.1 99620 68
2006-11-21 10:11 51°21.401 2°57.561 6.7 286 10.1 99600 68
2006-11-21 10:12 51°21.392 2°57.585 7.1 286 10.2 99610 68
2006-11-21 10:13 51°21.383 2°57.611 5.3 280 10.1 99610 68
2006-11-21 10:14 51°21.414 2°57.617 13.2 283 10.2 99600 69
2006-11-21 10:15 51°21.468 2°57.517 13.3 283 10.2 99570 68
2006-11-21 10:16 51°21.465 2°57.384 11.2 284 10.2 99590 67
2006-11-21 10:17 51°21.459 2°57.385 7.6 280 10.2 99600 67
2006-11-21 10:18 51°21.451 2°57.407 10.4 282 10.2 99600 67
2006-11-21 10:19 51°21.441 2°57.433 11.7 282 10.2 99600 67
2006-11-21 10:20 51°21.432 2°57.46 6.7 280 10.1 99600 64
2006-11-21 10:21 51°21.423 2°57.487 5.8 281 10.1 99600 64
2006-11-21 10:22 51°21.413 2°57.515 7.9 280 10.1 99610 64
2006-11-21 10:23 51°21.405 2°57.537 9 276 10.2 99600 66
2006-11-21 10:24 51°21.398 2°57.565 6.6 285 10.2 99600 66
2006-11-21 10:25 51°21.443 2°57.558 12.4 286 10.1 99580 65
2006-11-21 10:26 51°21.508 2°57.463 12.3 283 10.2 99580 66
2006-11-21 10:27 51°21.551 2°57.392 11.3 281 10.1 99570 64
2006-11-21 10:28 51°21.561 2°57.393 10.5 284 10.1 99590 66
2006-11-21 10:29 51°21.562 2°57.418 10.7 279 10.1 99580 67
2006-11-21 10:30 51°21.557 2°57.443 5.1 286 10.2 99590 67
2006-11-21 10:31 51°21.55 2°57.471 10.7 284 10.2 99590 67
2006-11-21 10:32 51°21.541 2°57.498 7.5 279 10.2 99580 68
2006-11-21 10:33 51°21.533 2°57.527 8.1 286 10.2 99580 69
2006-11-21 10:34 51°21.525 2°57.555 8.2 285 10.1 99580 68
2006-11-21 10:35 51°21.519 2°57.586 7.3 279 10.1 99580 68
2006-11-21 10:36 51°21.542 2°57.609 13.7 287 10.2 99580 69
2006-11-21 10:37 51°21.587 2°57.559 12.5 278 10.1 99560 67
2006-11-21 10:38 51°21.582 2°57.464 11.9 279 10.1 99580 66
2006-11-21 10:39 51°21.559 2°57.397 4.4 287 10 99570 66
2006-11-21 10:40 51°21.548 2°57.401 10.6 282 10 99590 66
2006-11-21 10:41 51°21.541 2°57.439 10.2 287 10 99600 66
2006-11-21 10:42 51°21.532 2°57.445 8.9 279 9.9 99590 66
2006-11-21 10:43 51°21.527 2°57.473 8.7 280 10 99590 66
2006-11-21 10:44 51°21.524 2°57.522 9.2 282 10 99580 67
2006-11-21 10:45 51°21.521 2°57.578 9.4 282 9.9 99590 65
2006-11-21 10:46 51°21.52 2°57.641 10.7 282 9.9 99590 64
2006-11-21 10:47 51°21.508 2°57.661 11.8 279 9.8 99570 63
2006-11-21 10:48 51°21.489 2°57.594 10.4 285 9.8 99580 63
2006-11-21 10:49 51°21.49 2°57.496 12.7 282 9.8 99570 64
2006-11-21 10:50 51°21.484 2°57.394 12.7 287 9.8 99560 65
2006-11-21 10:51 51°21.479 2°57.369 9.7 280 9.8 99580 64
2006-11-21 10:52 51°21.473 2°57.373 10.7 282 9.8 99590 64
2006-11-21 10:53 51°21.468 2°57.393 9.6 281 9.9 99580 65
2006-11-21 10:54 51°21.463 2°57.414 9.1 278 9.9 99580 65
2006-11-21 10:55 51°21.461 2°57.437 12.4 287 9.9 99580 65
2006-11-21 10:56 51°21.459 2°57.455 10.4 280 9.9 99580 63
2006-11-21 10:57 51°21.457 2°57.466 10 287 9.9 99580 62
2006-11-21 10:58 51°21.458 2°57.477 10.3 282 9.9 99590 63
2006-11-21 10:59 51°21.463 2°57.488 9.7 281 9.9 99590 63
2006-11-21 11:00 51°21.462 2°57.499 11.2 280 9.9 99580 64
2006-11-21 11:01 51°21.459 2°57.502 11.3 280 9.8 99580 62
2006-11-21 11:02 51°21.46 2°57.513 7.6 284 9.8 99590 61
2006-11-21 11:03 51°21.469 2°57.496 11.6 285 10 99560 66
2006-11-21 11:04 51°21.469 2°57.442 10.7 286 9.8 99580 64
2006-11-21 11:05 51°21.466 2°57.379 11.7 282 9.8 99570 63
2006-11-21 11:06 51°21.443 2°57.327 11.8 281 9.8 99560 65
2006-11-21 11:07 51°21.423 2°57.279 10.9 284 9.8 99560 66
2006-11-21 11:08 51°21.419 2°57.251 10.9 282 9.8 99590 67
2006-11-21 11:09 51°21.423 2°57.266 10.2 281 9.8 99580 65
2006-11-21 11:10 51°21.431 2°57.311 8.8 286 9.8 99570 65
2006-11-21 11:11 51°21.433 2°57.372 10.5 282 9.8 99570 64
2006-11-21 11:12 51°21.431 2°57.425 11 282 9.9 99580 65
2006-11-21 11:13 51°21.449 2°57.471 10 287 9.9 99590 64
2006-11-21 11:14 51°21.48 2°57.495 8.4 279 9.9 99570 65
2006-11-21 11:15 51°21.502 2°57.501 10.7 286 10 99570 65
2006-11-21 11:16 51°21.506 2°57.501 10.8 282 9.9 99580 65
2006-11-21 11:17 51°21.498 2°57.489 9.9 280 9.9 99570 67
2006-11-21 11:18 51°21.493 2°57.467 10.2 281 9.9 99570 66
2006-11-21 11:19 51°21.488 2°57.443 9.5 281 9.8 99570 67
2006-11-21 11:20 51°21.478 2°57.428 9.9 278 9.9 99570 66
2006-11-21 11:21 51°21.476 2°57.414 11.2 277 9.9 99560 65
2006-11-21 11:22 51°21.472 2°57.39 11 287 9.8 99560 65
2006-11-21 11:23 51°21.466 2°57.37 11.9 284 9.8 99560 63
2006-11-21 11:24 51°21.461 2°57.348 11.5 286 9.7 99560 62
2006-11-21 11:25 51°21.462 2°57.332 10.2 277 9.8 99560 63
2006-11-21 11:26 51°21.471 2°57.312 10.9 283 9.8 99580 64
2006-11-21 11:27 51°21.482 2°57.289 10 281 9.8 99570 65
2006-11-21 11:28 51°21.481 2°57.269 10.8 282 9.8 99570 62
2006-11-21 11:29 51°21.476 2°57.251 12.2 287 9.9 99560 65
2006-11-21 11:30 51°21.48 2°57.227 10.4 282 9.9 99550 65
2006-11-21 11:31 51°21.492 2°57.2 10.6 280 9.8 99570 65
2006-11-21 11:32 51°21.498 2°57.186 11.1 280 9.9 99570 66
2006-11-21 11:33 51°21.494 2°57.177 10.4 286 9.8 99550 64
2006-11-21 11:34 51°21.499 2°57.154 11.2 285 9.8 99560 63
2006-11-21 11:35 51°21.509 2°57.128 9.3 280 9.8 99560 64
2006-11-21 11:36 51°21.516 2°57.111 11.6 283 9.8 99570 66
2006-11-21 11:37 51°21.52 2°57.096 11.5 280 9.7 99550 63
2006-11-21 11:38 51°21.519 2°57.077 9.7 285 9.8 99550 63
2006-11-21 11:39 51°21.518 2°57.069 12 278 9.7 99530 62
2006-11-21 11:40 51°21.516 2°57.055 10.5 281 9.8 99540 62
2006-11-21 11:41 51°21.515 2°57.039 11 286 9.7 99540 63
2006-11-21 11:42 51°21.507 2°56.983 13.5 283 9.7 99530 63
2006-11-21 11:43 51°21.435 2°56.816 13.7 282 9.8 99560 65
2006-11-21 11:44 51°21.332 2°56.57 13 286 9.7 99540 64
2006-11-21 11:45 51°21.235 2°56.327 16.1 283 9.7 99540 66
2006-11-21 11:46 51°21.136 2°56.073 16.4 285 9.7 99550 66
2006-11-21 11:47 51°21.042 2°55.826 14.5 282 9.7 99540 65
2006-11-21 11:48 51°20.944 2°55.567 14 279 9.7 99550 67
2006-11-21 11:49 51°20.846 2°55.321 16.9 282 9.7 99540 67
2006-11-21 11:50 51°20.746 2°55.08 17 283 9.7 99540 67
2006-11-21 11:51 51°20.644 2°54.833 15.5 282 9.7 99530 66
2006-11-21 11:52 51°20.541 2°54.593 15.1 281 9.7 99520 67
2006-11-21 11:53 51°20.44 2°54.348 16.2 281 9.8 99530 69
2006-11-21 11:54 51°20.331 2°54.113 12.8 282 9.7 99540 66
2006-11-21 11:55 51°20.218 2°53.888 15.1 280 9.7 99530 65
2006-11-21 11:56 51°20.105 2°53.654 15.4 280 9.8 99530 66
2006-11-21 11:57 51°19.996 2°53.436 15.9 278 9.7 99510 62
2006-11-21 11:58 51°19.887 2°53.209 16.6 345 9.7 99510 63
2006-11-21 11:59 51°19.811 2°53.048 13 285 9.8 99530 65
2006-11-21 12:00 51°19.814 2°53.001 11.3 284 9.7 99530 63
2006-11-21 12:01 51°19.836 2°53.042 10.2 278 9.7 99530 62
2006-11-21 12:02 51°19.852 2°53.098 11.2 284 9.7 99540 63
2006-11-21 12:03 51°19.87 2°53.159 5.6 279 9.7 99550 61
2006-11-21 12:04 51°19.886 2°53.218 5.5 277 9.7 99540 63
2006-11-21 12:05 51°19.903 2°53.277 6.8 283 9.8 99560 64
2006-11-21 12:06 51°19.92 2°53.336 4.3 280 9.8 99520 62
2006-11-21 12:07 51°19.935 2°53.395 7.5 279 9.9 99520 65
2006-11-21 12:08 51°19.95 2°53.452 11 280 9.9 99520 65
2006-11-21 12:09 51°20.008 2°53.465 10.1 282 9.8 99510 63
2006-11-21 12:10 51°20.014 2°53.403 11.2 281 9.8 99520 64
2006-11-21 12:11 51°19.928 2°53.297 14.7 349 9.8 99500 67
2006-11-21 12:12 51°19.878 2°53.167 11.6 284 9.6 99520 64
2006-11-21 12:13 51°19.882 2°53.117 12.8 280 9.6 99530 64
2006-11-21 12:14 51°19.896 2°53.121 9.3 283 9.7 99530 65
2006-11-21 12:15 51°19.913 2°53.149 10.2 283 9.7 99530 64
2006-11-21 12:16 51°19.929 2°53.19 9.5 285 9.7 99530 64
2006-11-21 12:17 51°19.94 2°53.227 10.5 287 9.7 99520 65
2006-11-21 12:18 51°19.948 2°53.241 11.6 277 9.6 99530 61
2006-11-21 12:19 51°19.965 2°53.252 10.2 284 9.6 99520 62
2006-11-21 12:20 51°19.986 2°53.26 10.1 279 9.6 99520 60
2006-11-21 12:21 51°19.993 2°53.259 12.9 356 9.6 99530 60
2006-11-21 12:22 51°19.923 2°53.242 11.9 352 9.5 99490 60
2006-11-21 12:23 51°19.827 2°53.182 10.2 355 9.6 99510 61
2006-11-21 12:24 51°19.772 2°53.132 10.5 285 9.6 99490 61
2006-11-21 12:25 51°19.776 2°53.127 9.3 287 9.6 99500 58
2006-11-21 12:26 51°19.793 2°53.148 10.1 284 9.6 99500 64
2006-11-21 12:27 51°19.802 2°53.171 8.4 280 9.7 99510 63
2006-11-21 12:28 51°19.806 2°53.188 9.1 280 9.6 99500 62
2006-11-21 12:29 51°19.811 2°53.205 8.7 281 9.6 99510 61
2006-11-21 12:30 51°19.818 2°53.23 9.4 282 9.6 99510 64
2006-11-21 12:31 51°19.826 2°53.248 11.6 279 9.6 99510 63
2006-11-21 12:32 51°19.832 2°53.271 10 283 9.6 99510 59
2006-11-21 12:33 51°19.838 2°53.305 10.8 278 9.6 99510 60
2006-11-21 12:34 51°19.84 2°53.319 10.7 285 9.6 99500 63
2006-11-21 12:35 51°19.841 2°53.323 10.3 277 9.6 99510 64
2006-11-21 12:36 51°19.846 2°53.342 10.1 350 9.6 99510 62
2006-11-21 12:37 51°19.851 2°53.366 9.4 285 9.5 99510 60
2006-11-21 12:38 51°19.855 2°53.389 9.4 281 9.6 99500 66
2006-11-21 12:39 51°19.859 2°53.424 11.6 280 9.5 99490 64
2006-11-21 12:40 51°19.857 2°53.426 11.3 278 9.4 99500 61
2006-11-21 12:41 51°19.867 2°53.367 13.5 286 9.5 99490 64
2006-11-21 12:42 51°19.854 2°53.268 13.7 287 9.5 99490 64
2006-11-21 12:43 51°19.835 2°53.153 12.7 281 9.5 99490 63
2006-11-21 12:44 51°19.842 2°53.126 9.7 284 9.6 99500 63
2006-11-21 12:45 51°19.854 2°53.138 10.7 348 9.6 99490 63
2006-11-21 12:46 51°19.86 2°53.168 10.2 283 9.5 99480 61
2006-11-21 12:47 51°19.863 2°53.186 10.6 285 9.5 99490 63
2006-11-21 12:48 51°19.866 2°53.199 11.5 282 9.4 99490 61
2006-11-21 12:49 51°19.868 2°53.222 9.2 283 9.4 99490 61
2006-11-21 12:50 51°19.872 2°53.235 9.9 280 9.4 99490 60
2006-11-21 12:51 51°19.871 2°53.24 10.7 285 9.3 99500 59
2006-11-21 12:52 51°19.875 2°53.245 9.7 283 9.4 99500 62
2006-11-21 12:53 51°19.88 2°53.26 10.1 285 9.4 99490 62
2006-11-21 12:54 51°19.882 2°53.287 10.7 349 9.5 99490 64
2006-11-21 12:55 51°19.883 2°53.313 8.5 282 9.4 99510 63
2006-11-21 12:56 51°19.887 2°53.329 10.9 284 9.4 99510 65
2006-11-21 12:57 51°19.892 2°53.343 11 278 9.5 99510 66
2006-11-21 12:58 51°19.859 2°53.332 12.2 279 9.4 99480 64
2006-11-21 12:59 51°19.804 2°53.239 14.2 279 9.5 99480 64
2006-11-21 13:00 51°19.767 2°53.134 11.6 277 9.5 99480 62
2006-11-21 13:01 51°19.752 2°53.081 10.4 285 9.5 99500 63
2006-11-21 13:02 51°19.752 2°53.082 10.7 349 9.4 99500 62
2006-11-21 13:03 51°19.757 2°53.104 10.7 279 9.5 99500 65
2006-11-21 13:04 51°19.763 2°53.127 8.9 283 9.5 99490 62
2006-11-21 13:05 51°19.769 2°53.15 9.1 284 9.5 99510 62
2006-11-21 13:06 51°19.772 2°53.158 11.3 282 9.5 99500 63
2006-11-21 13:07 51°19.774 2°53.166 11.2 283 9.5 99490 61
2006-11-21 13:08 51°19.775 2°53.181 9 345 9.5 99480 63
2006-11-21 13:09 51°19.776 2°53.205 11.9 287 9.5 99490 63
2006-11-21 13:10 51°19.782 2°53.217 12.2 277 9.5 99490 62
2006-11-21 13:11 51°19.767 2°53.191 10.7 279 9.6 99490 61
2006-11-21 13:12 51°19.732 2°53.145 11 287 9.5 99480 61
2006-11-21 13:13 51°19.718 2°53.122 11.2 284 9.5 99490 64
2006-11-21 13:14 51°19.718 2°53.138 10.8 284 9.6 99490 61
2006-11-21 13:15 51°19.719 2°53.165 10.5 284 9.5 99490 63
2006-11-21 13:16 51°19.723 2°53.186 9.2 285 9.5 99500 61
2006-11-21 13:17 51°19.724 2°53.201 10.9 350 9.5 99490 61
2006-11-21 13:18 51°19.722 2°53.213 9.7 283 9.5 99480 60
2006-11-21 13:19 51°19.733 2°53.196 11.1 282 9.5 99500 61
2006-11-21 13:20 51°19.812 2°53.213 6.5 284 9.5 99510 61
2006-11-21 13:21 51°19.917 2°53.347 10.8 284 9.6 99510 62
2006-11-21 13:22 51°20.02 2°53.491 6.9 78 9.6 99510 60
2006-11-21 13:23 51°20.005 2°53.638 9.5 30 9.7 99500 61
2006-11-21 13:24 51°19.99 2°53.693 9 4 9.7 99490 63
2006-11-21 13:25 51°19.961 2°53.648 11.7 278 9.6 99500 60
2006-11-21 13:26 51°19.952 2°53.61 9.9 279 9.5 99480 60
2006-11-21 13:27 51°19.949 2°53.594 11.9 347 9.5 99490 59
2006-11-21 13:28 51°19.951 2°53.603 9.7 285 9.4 99480 55
2006-11-21 13:29 51°19.946 2°53.594 10.7 350 9.4 99470 59
2006-11-21 13:30 51°19.947 2°53.611 10.3 281 9.4 99480 59
2006-11-21 13:31 51°19.95 2°53.637 9.4 280 9.5 99490 64
2006-11-21 13:32 51°19.955 2°53.653 8.6 286 9.4 99490 60
2006-11-21 13:33 51°19.963 2°53.667 10.6 279 9.5 99500 62
2006-11-21 13:34 51°19.968 2°53.684 10.3 279 9.5 99490 62
2006-11-21 13:35 51°19.968 2°53.704 10.4 355 9.4 99480 61
2006-11-21 13:36 51°19.965 2°53.719 9.3 285 9.5 99480 64
2006-11-21 13:37 51°19.965 2°53.741 10 277 9.4 99480 60
2006-11-21 13:38 51°19.97 2°53.765 9.3 287 9.5 99490 63
2006-11-21 13:39 51°19.969 2°53.756 11.3 286 9.4 99480 60
2006-11-21 13:40 51°19.925 2°53.66 12.5 280 9.4 99470 60
2006-11-21 13:41 51°19.819 2°53.524 13.3 350 9.4 99460 61
2006-11-21 13:42 51°19.743 2°53.356 14.9 283 9.5 99470 63
2006-11-21 13:43 51°19.665 2°53.186 13.8 280 9.5 99450 61
2006-11-21 13:44 51°19.586 2°53.004 12.9 348 9.5 99450 61
2006-11-21 13:45 51°19.522 2°52.844 9.9 283 9.4 99470 60
2006-11-21 13:46 51°19.53 2°52.803 8.4 280 9.5 99490 61
2006-11-21 13:47 51°19.541 2°52.815 8 280 9.5 99490 62
2006-11-21 13:48 51°19.547 2°52.834 9.6 347 9.5 99480 61
2006-11-21 13:49 51°19.551 2°52.857 8.6 284 9.4 99480 61
2006-11-21 13:50 51°19.555 2°52.87 9.3 287 9.4 99470 64
2006-11-21 13:51 51°19.565 2°52.879 9.7 282 9.4 99470 61
2006-11-21 13:52 51°19.573 2°52.896 9.9 284 9.5 99480 62
2006-11-21 13:53 51°19.574 2°52.913 10.3 284 9.5 99480 62
2006-11-21 13:54 51°19.577 2°52.925 10.7 281 9.4 99480 60
2006-11-21 13:55 51°19.568 2°52.909 12.3 355 9.4 99480 59
2006-11-21 13:56 51°19.496 2°52.886 10.6 279 9.4 99470 60
2006-11-21 13:57 51°19.477 2°52.839 8.5 285 9.4 99480 60
2006-11-21 13:58 51°19.485 2°52.848 7.9 280 9.4 99490 62
2006-11-21 13:59 51°19.494 2°52.873 9.6 339 9.5 99470 62
2006-11-21 14:00 51°19.499 2°52.893 9.2 280 9.5 99470 61
2006-11-21 14:01 51°19.5 2°52.897 8.6 341 9.5 99470 60
2006-11-21 14:02 51°19.504 2°52.903 8.4 279 9.4 99470 59
2006-11-21 14:03 51°19.514 2°52.932 8.8 284 9.4 99460 61
2006-11-21 14:04 51°19.527 2°52.969 7.7 355 9.4 99470 62
2006-11-21 14:05 51°19.509 2°52.976 12.1 349 9.5 99450 64
2006-11-21 14:06 51°19.476 2°52.914 11.7 286 9.5 99460 63
2006-11-21 14:07 51°19.451 2°52.862 11.4 287 9.4 99460 61
2006-11-21 14:08 51°19.448 2°52.859 9.2 280 9.4 99460 59
2006-11-21 14:09 51°19.452 2°52.878 8.5 343 9.4 99460 61
2006-11-21 14:10 51°19.452 2°52.895 8.9 346 9.4 99460 61
2006-11-21 14:11 51°19.452 2°52.908 10.4 348 9.4 99460 61
2006-11-21 14:12 51°19.458 2°52.93 8 281 9.3 99470 60
2006-11-21 14:13 51°19.465 2°52.956 9.3 347 9.3 99460 62
2006-11-21 14:14 51°19.465 2°52.968 10.3 283 9.4 99470 63
2006-11-21 14:15 51°19.466 2°52.974 9.1 285 9.3 99470 61
2006-11-21 14:16 51°19.465 2°52.978 8.7 278 9.3 99480 62
2006-11-21 14:17 51°19.448 2°52.937 11.5 337 9.4 99470 63
2006-11-21 14:18 51°19.439 2°52.852 10.7 282 9.4 99460 62
2006-11-21 14:19 51°19.446 2°52.82 10.9 303 9.4 99460 61
2006-11-21 14:20 51°19.465 2°52.816 8.7 281 9.4 99460 60
2006-11-21 14:21 51°19.494 2°52.822 8.2 306 9.4 99470 62
2006-11-21 14:22 51°19.511 2°52.86 8.2 304 9.4 99480 62
2006-11-21 14:23 51°19.527 2°52.899 10.2 303 9.5 99490 63
2006-11-21 14:24 51°19.542 2°52.94 7.7 304 9.4 99490 62
2006-11-21 14:25 51°19.555 2°52.976 5.7 280 9.4 99490 61
2006-11-21 14:26 51°19.568 2°53.015 9.2 310 9.5 99490 62
2006-11-21 14:27 51°19.601 2°53.042 12.3 303 9.6 99480 65
2006-11-21 14:28 51°19.644 2°53.008 11 325 9.6 99440 63
2006-11-21 14:29 51°19.603 2°52.943 13.3 277 9.5 99450 60
2006-11-21 14:30 51°19.541 2°52.835 10 337 9.5 99440 61
2006-11-21 14:31 51°19.522 2°52.793 7.6 337 9.4 99470 62
2006-11-21 14:32 51°19.527 2°52.795 8.4 332 9.5 99470 63
2006-11-21 14:33 51°19.536 2°52.797 8.8 327 9.5 99460 64
2006-11-21 14:34 51°19.546 2°52.808 10.2 285 9.5 99470 61
2006-11-21 14:35 51°19.551 2°52.825 10.6 349 9.5 99460 61
2006-11-21 14:36 51°19.549 2°52.841 10.4 349 9.4 99480 60
2006-11-21 14:37 51°19.535 2°52.83 10.9 335 9.4 99450 61
2006-11-21 14:38 51°19.547 2°52.742 12.3 285 9.4 99450 59
2006-11-21 14:39 51°19.575 2°52.704 9.1 304 9.4 99450 57
2006-11-21 14:40 51°19.591 2°52.735 9.3 304 9.5 99470 60
2006-11-21 14:41 51°19.61 2°52.767 10.3 280 9.6 99470 60
2006-11-21 14:42 51°19.613 2°52.805 8.3 306 9.6 99470 60
2006-11-21 14:43 51°19.621 2°52.836 9.3 82 9.6 99480 61
2006-11-21 14:44 51°19.63 2°52.868 9.7 309 9.5 99490 60
2006-11-21 14:45 51°19.643 2°52.901 6.9 280 9.7 99470 64
2006-11-21 14:46 51°19.657 2°52.934 8 307 9.7 99470 62
2006-11-21 14:47 51°19.686 2°52.972 6 308 9.6 99470 60
2006-11-21 14:48 51°19.727 2°53.108 6.8 33 9.6 99480 58
2006-11-21 14:49 51°19.652 2°53.162 11.3 350 9.6 99440 57
2006-11-21 14:50 51°19.581 2°53.059 12.3 350 9.5 99430 55
2006-11-21 14:51 51°19.517 2°52.911 13.2 343 9.6 99430 60
2006-11-21 14:52 51°19.512 2°52.805 10 331 9.5 99440 60
2006-11-21 14:53 51°19.532 2°52.753 9 305 9.5 99440 61
2006-11-21 14:54 51°19.558 2°52.718 9.1 306 9.5 99440 58
2006-11-21 14:55 51°19.571 2°52.749 10.4 284 9.5 99450 62
2006-11-21 14:56 51°19.578 2°52.786 8.8 302 9.6 99450 63
2006-11-21 14:57 51°19.582 2°52.817 7.3 285 9.5 99460 62
2006-11-21 14:58 51°19.59 2°52.845 4.6 285 9.6 99460 64
2006-11-21 14:59 51°19.646 2°52.852 9.2 280 9.5 99460 61
2006-11-21 15:00 51°19.666 2°52.743 9.8 277 9.5 99430 60
2006-11-21 15:01 51°19.57 2°52.725 11.2 355 9.5 99430 59
2006-11-21 15:02 51°19.387 2°52.677 13.7 354 9.5 99420 61
2006-11-21 15:03 51°19.174 2°52.634 11.9 359 9.6 99410 59
2006-11-21 15:04 51°18.963 2°52.621 9.7 359 9.6 99420 59
2006-11-21 15:05 51°18.759 2°52.734 7.6 8 9.6 99430 58
2006-11-21 15:06 51°18.552 2°52.795 13.9 354 9.6 99440 63
2006-11-21 15:07 51°18.351 2°52.723 14.9 353 9.6 99420 61
2006-11-21 15:08 51°18.139 2°52.68 11.7 354 9.5 99410 58
2006-11-21 15:09 51°17.929 2°52.64 12.6 355 9.5 99410 59
2006-11-21 15:10 51°17.718 2°52.608 13.2 358 9.5 99430 60
2006-11-21 15:11 51°17.508 2°52.58 13.5 278 9.6 99410 61
2006-11-21 15:12 51°17.288 2°52.566 11.8 355 9.5 99410 60
2006-11-21 15:13 51°17.077 2°52.598 9.9 3 9.5 99430 56
2006-11-21 15:14 51°16.872 2°52.674 8 7 9.5 99440 59
2006-11-21 15:15 51°16.662 2°52.772 10.6 4 9.6 99440 60
2006-11-21 15:16 51°16.449 2°52.885 10.2 2 9.6 99450 61
2006-11-21 15:17 51°16.24 2°52.988 10.2 3 9.5 99440 59
2006-11-21 15:18 51°16.023 2°53.086 10.7 8 9.5 99450 59
2006-11-21 15:19 51°15.811 2°53.192 8.7 4 9.5 99450 58
2006-11-21 15:20 51°15.599 2°53.314 8.1 5 9.5 99450 58
2006-11-21 15:21 51°15.395 2°53.435 9.3 7 9.5 99440 57
2006-11-21 15:22 51°15.204 2°53.625 7.7 8 9.5 99450 59
2006-11-21 15:23 51°15.045 2°53.866 7 8 9.5 99470 58
2006-11-21 15:24 51°14.884 2°54.117 8.8 12 9.5 99480 56
2006-11-21 15:25 51°14.722 2°54.359 8.6 13 9.5 99470 58
2006-11-21 15:26 51°14.58 2°54.637 6.9 11 9.5 99480 60
2006-11-21 15:27 51°14.435 2°54.912 6.9 15 9.4 99470 58
2006-11-21 15:28 51°14.299 2°55.19 5.1 21 9.5 99480 61
2006-11-21 15:29 51°14.19 2°55.357 8.3 12 9.4 99480 60
2006-11-21 15:30 51°14.095 2°55.429 3.4 8 9.4 99470 58
2006-11-21 15:31 51°14.007 2°55.496 3.7 14 9.3 99480 57
2006-11-21 15:32 51°13.92 2°55.563 3.4 349 9.3 99480 56
2006-11-21 15:33 51°13.827 2°55.631 2.9 280 9.3 99480 56
2006-11-21 15:34 51°13.744 2°55.736 3.3 10 9.3 99480 55
2006-11-21 15:35 51°13.681 2°55.854 2.4 25 9.3 99480 55
2006-11-21 15:36 51°13.632 2°55.969 3.2 23 9.2 99480 55
2006-11-21 15:37 51°13.608 2°56.059 4.7 37 9.2 99480 55
2006-11-21 15:38 51°13.6 2°56.09 6.7 43 9.2 99490 55